This is the latest recevied weather packets stored in our database for station/object K5NAN. If no packets are shown the sender has not sent any weather packets the latest 1 day(s).
| Time | Temp. | Humidity | Pressure | Rain* | Wind** | Luminosity | Snow |
|---|---|---|---|---|---|---|---|
| 1778013381 | 28.89° C | 65% | 1003.5 hPa | 0 mm | 4.02 m/s, 184° | 220 W/m² | - |
| 1778013079 | 28.89° C | 66% | 1003.4 hPa | 0 mm | 5.36 m/s, 196° | 805 W/m² | - |
| 1778012774 | 28.33° C | 67% | 1003.4 hPa | 0 mm | 6.71 m/s, 138° | 293 W/m² | - |
| 1778012471 | 28.33° C | 67% | 1003.5 hPa | 0 mm | 4.02 m/s, 177° | 565 W/m² | - |
| 1778012167 | 28.33° C | 68% | 1003.5 hPa | 0 mm | 4.92 m/s, 184° | 733 W/m² | - |
| 1778011865 | 28.33° C | 69% | 1003.5 hPa | 0 mm | 4.92 m/s, 193° | 777 W/m² | - |
| 1778011563 | 28.33° C | 69% | 1003.6 hPa | 0 mm | 6.26 m/s, 180° | 795 W/m² | - |
| 1778011259 | 28.33° C | 69% | 1003.9 hPa | 0 mm | 4.92 m/s, 215° | 847 W/m² | - |
| 1778010955 | 27.78° C | 68% | 1003.6 hPa | 0 mm | 5.36 m/s, 145° | 647 W/m² | - |
| 1778010653 | 27.78° C | 68% | 1003.7 hPa | 0 mm | 4.47 m/s, 193° | 689 W/m² | - |
| 1778010350 | 27.78° C | 69% | 1003.6 hPa | 0 mm | 4.92 m/s, 213° | 696 W/m² | - |
| 1778010046 | 27.78° C | 68% | 1003.7 hPa | 0 mm | 5.36 m/s, 194° | 638 W/m² | - |
| 1778009743 | 27.78° C | 69% | 1003.7 hPa | 0 mm | 3.58 m/s, 185° | 380 W/m² | - |
| 1778009440 | 27.78° C | 69% | 1003.6 hPa | 0 mm | 5.81 m/s, 197° | 621 W/m² | - |
| 1778009139 | 27.22° C | 69% | 1003.6 hPa | 0 mm | 5.36 m/s, 193° | 804 W/m² | - |
| 1778008836 | 27.22° C | 71% | 1003.7 hPa | 0 mm | 4.47 m/s, 173° | 719 W/m² | - |
| 1778008534 | 27.22° C | 71% | 1003.7 hPa | 0 mm | 4.92 m/s, 184° | 594 W/m² | - |
| 1778008232 | 27.22° C | 70% | 1003.8 hPa | 0 mm | 5.36 m/s, 187° | 586 W/m² | - |
| 1778007936 | 26.67° C | 71% | 1003.8 hPa | 0 mm | 4.92 m/s, 203° | 618 W/m² | - |
| 1778007628 | 26.67° C | 71% | 1003.9 hPa | 0 mm | 4.02 m/s, 157° | 565 W/m² | - |
| 1778007325 | 26.67° C | 72% | 1004 hPa | 0 mm | 5.81 m/s, 205° | 417 W/m² | - |
| 1778007021 | 26.67° C | 72% | 1004.2 hPa | 0 mm | 5.81 m/s, 192° | 445 W/m² | - |
| 1778006718 | 26.67° C | 71% | 1004 hPa | 0 mm | 4.02 m/s, 197° | 366 W/m² | - |
| 1778006415 | 26.67° C | 71% | 1003.9 hPa | 0 mm | 6.26 m/s, 199° | 345 W/m² | - |
| 1778006113 | 26.67° C | 70% | 1003.9 hPa | 0 mm | 6.26 m/s, 196° | 554 W/m² | - |
* Rain latest hour (hover to see other rain measurements)
** Current wind speed in m/s (hover to see current wind gust speed)